Location: Gradaro
(45.0833°N, 10.8833°E)
Time: 09:41:26
(UTC+00:00)

FENGYUN 1C DEB - Pass Details

Date: 03 July 2021
Orbit: 803 x 830 km, 98.8° (Epoch: 28 July)

Event Time Altitude Azimuth Distance (km) Brightness Sun altitude
Exits shadow 21:44:13 31° 180° (S) 1,402 ? -18.6°
Maximum altitude 21:46:49 70° 257° (WSW) 867 ? -18.7°
Drops below altitude 10° 21:52:11 10° 341° (NNW) 2,427 ? -19.1°
Sets 21:54:34 0° 344° (NNW) 3,368 ? -19.2°
